User: anonymous   Login
Location: Endfield
(51.6667°N, 0.0667°W)
Time: 06:42:59
(UTC+00:00)
Language:

ALOS 2 - Orbit

View from above orbital plane
View from above orbital plane
View from above satellite
View from above satellite

Ground track
Ground track

The orbit data is extracted from the following two-line orbital elements,

1 39766U 14029A   24205.83482779  .00001901  00000-0  26133-3 0  9997
2 39766  97.9232 301.9526 0001629  98.1145 262.0252 14.79470960549090
Epoch (UTC): 23 July 2024 20:02:09
Eccentricity: 0.0001629
inclination: 97.9232°
perigee height: 630 km
apogee height: 632 km
right ascension of ascending node: 301.9526°
argument of perigee: 98.1145°
revolutions per day: 14.79470960
mean anomaly at epoch: 262.0252°
orbit number at epoch: 54909

The dashed part of the orbit path shows where the satellite is in the earth's shadow,  

DLR